Retour au catalogue

STARLINK-36065

ActifCommunicationsVLEO
NORAD 66898·PAYLOAD·🇺🇸 United States

Lancé Dec 4, 2025 depuis Vandenberg Space Force Base

Loading…

Prochains Passages (prochaines 24 heures)

TLE

FraisSource: CelesTrak SupGP

Époque: Sep 15, 2026, 04:12 UTC

1 66898C 25283W   26258.17548611 -.00053215  00000+0 -15724-2 0  2589
2 66898  53.1576 220.2524 0001385  92.3109  82.9296 15.34413361    12

Suivez STARLINK-36065 en temps réel avec AllMySat

Download on the App Store